{"data":{"norad_id":69045,"intl_designator":"2026-101W","name":"STARLINK-37667","alt_names":[],"object_type":"PAYLOAD","status":"ACTIVE","operator":null,"country":"US","launch_date":"2026-05-06","launch_site_code":"AFWTR","launch_vehicle":null,"mission":null,"orbit_class":"UNKNOWN","rcs_meters":null,"size_class":null,"mass_kg":null,"dimensions":null,"purposes":["comms"],"wikipedia_slug":null,"has_3d_model":false,"image_url":null,"decayed_at":null,"tle_current":{"epoch":"2026-05-25T03:13:17.084064Z","epoch_age_seconds":77597,"freshness":"FRESH","line1":"1 69045U 26101W   26145.13422551  .00095708  00000+0  63453-3 0  9997","line2":"2 69045  97.2846 359.9176 0001302  86.6000 273.5414 15.75220706  3013","mean_motion":15.75220706,"eccentricity":0.0001302,"inclination_deg":97.2846,"raan_deg":359.9176,"arg_perigee_deg":86.6,"mean_anomaly_deg":273.5414,"bstar":0.00063453,"rev_number":301,"period_min":91.415761265393,"perigee_km":343.1279875247,"apogee_km":344.87843283543,"semimajor_km":6722.1402101801,"source":"CELESTRAK","updated_at":"2026-05-25T13:38:22.100711Z"}}}